Preview of NWS' New Version of Forecast
This preview is not operational and should not be used for support decisions.

Terminal Aerodrome Forecast (TAF)

Issued by National Weather Service (NWS)

                            
000
FTUS41 KGYX 210901 AAC
TAFRKD
TAF AMD
KRKD 210901Z 2109/2206 VRB03KT 6SM BR SCT002
      TEMPO 2109/2111 3SM BR BKN002
     FM211400 17007KT P6SM SCT050 BKN100
     FM211900 17006KT 5SM -SHRA OVC025
     FM212200 16005KT 3SM TSRA OVC015CB
     FM220200 16004KT 1 1/2SM -SHRA BR OVC005=